Weather History for Toms River, NJ

Change the Weather History Date:

Wednesday, May 7, 2014

  Actual Average Record
Temperature  
Mean Temperature 47 °F -  
Max Temperature 64 °F 71 °F 93 °F (1986)
Min Temperature 30 °F 45 °F 30 °F (2014)
Degree Days  
Heating Degree Days 18    
Moisture  
Dew Point 36 °F    
Average Humidity 67    
Maximum Humidity 100    
Minimum Humidity 28    
Precipitation  
Precipitation 0.01 in - - ()
Sea Level Pressure  
Sea Level Pressure 30.20 in    
Wind  
Wind Speed 1 mph (SE)    
Max Wind Speed 12 mph    
Max Gust Speed -    
Visibility 10 miles    
Events      
Averages and records for this station are not official NWS values.
T = Trace of Precipitation, MM = Missing Value Source: NWS Daily Summary

Daily Weather History Graph

Daily Weather History Graph

Search for Another Location

Airport:

Trip Planner

Search our weather history database for the weather conditions in past years. The results will help you decide how hot, cold, wet, or windy it might be!

Date:

Astronomy

May. 07, 2014 Rise Set
Actual Time 5:50 AM EDT 7:57 PM EDT
Civil Twilight 5:20 AM EDT 8:27 PM EDT
Nautical Twilight 4:43 AM EDT 9:04 PM EDT
Astronomical Twilight 4:04 AM EDT 9:44 PM EDT
Moon 1:00 PM EDT (5/7) 1:47 AM EDT (5/7)
Length of Visible Light 15h 07m
Length of Day
14h 07m
First Quarter, 55% of the Moon is Illuminated
May 7
First Quarter
May 14
Full
May 21
Last Quarter
May 28
New
Jun 5
First Quarter

Hourly Weather History & Observations

Time (EDT) Temp. Windchill Dew Point Humidity Pressure Visibility Wind Dir Wind Speed Gust Speed Precip Events Conditions
12:15 AM 41.0 °F - 35.6 °F 81% 30.08 in 10.0 mi Calm Calm - N/A   Clear
12:35 AM 42.8 °F - 37.4 °F 81% 30.09 in 10.0 mi Calm Calm - N/A   Clear
12:55 AM 39.2 °F - 32.0 °F 75% 30.09 in 10.0 mi Calm Calm - N/A   Clear
1:15 AM 39.2 °F - 33.8 °F 81% 30.10 in 10.0 mi Calm Calm - N/A   Clear
1:35 AM 41.0 °F - 35.6 °F 81% 30.10 in 10.0 mi Calm Calm - N/A   Clear
1:55 AM 37.4 °F - 30.2 °F 75% 30.11 in 10.0 mi Calm Calm - N/A   Clear
2:15 AM 37.4 °F - 33.8 °F 87% 30.11 in 10.0 mi Calm Calm - N/A   Clear
2:35 AM 37.4 °F - 32.0 °F 81% 30.12 in 10.0 mi Calm Calm - N/A   Clear
2:55 AM 37.4 °F - 33.8 °F 87% 30.12 in 10.0 mi Calm Calm - N/A   Clear
3:15 AM 37.4 °F - 30.2 °F 75% 30.13 in 10.0 mi Calm Calm - N/A   Clear
3:35 AM 35.6 °F - 30.2 °F 81% 30.13 in 10.0 mi Calm Calm - N/A   Clear
3:55 AM 37.4 °F - 30.2 °F 75% 30.13 in 10.0 mi Calm Calm - N/A   Clear
4:15 AM 37.4 °F - 33.8 °F 87% 30.14 in 10.0 mi Calm Calm - N/A   Clear
4:35 AM 37.4 °F - 32.0 °F 81% 30.14 in 10.0 mi Calm Calm - N/A   Clear
4:55 AM 37.4 °F - 32.0 °F 81% 30.15 in 10.0 mi Calm Calm - N/A   Clear
5:15 AM 37.4 °F - 30.2 °F 75% 30.16 in 10.0 mi Calm Calm - N/A   Clear
5:35 AM 37.4 °F - 30.2 °F 75% 30.16 in 10.0 mi Calm Calm - N/A   Clear
5:55 AM 37.4 °F - 32.0 °F 81% 30.16 in 10.0 mi Calm Calm - N/A   Clear
6:15 AM 35.6 °F - 28.4 °F 75% 30.17 in 10.0 mi Calm Calm - N/A   Clear
6:35 AM 37.4 °F - 33.8 °F 87% 30.18 in 10.0 mi Calm Calm - N/A   Clear
6:55 AM 39.2 °F - 33.8 °F 81% 30.18 in 10.0 mi Calm Calm - N/A   Clear
7:15 AM 44.6 °F - 35.6 °F 71% 30.19 in 10.0 mi Calm Calm - N/A   Clear
7:35 AM 48.2 °F - 37.4 °F 66% 30.19 in 10.0 mi Calm Calm - N/A   Clear
7:55 AM 46.4 °F - 35.6 °F 66% 30.20 in 10.0 mi Calm Calm - N/A   Clear
8:15 AM 30.2 °F 25.4 °F 30.2 °F 100% 30.21 in 10.0 mi NE 4.6 mph - N/A   Clear
8:35 AM 41.0 °F 38.0 °F 33.8 °F 76% 30.22 in 10.0 mi ENE 4.6 mph - N/A   Clear
8:55 AM 42.8 °F 38.6 °F 33.8 °F 70% 30.24 in 10.0 mi ENE 6.9 mph - N/A   Clear
9:15 AM 42.8 °F 38.6 °F 32.0 °F 66% 30.25 in 10.0 mi ENE 6.9 mph - N/A   Clear
9:35 AM 53.6 °F - 30.2 °F 41% 30.25 in 10.0 mi ESE 4.6 mph - N/A   Clear
9:55 AM 60.8 °F - 30.2 °F 31% 30.25 in 10.0 mi SE 5.8 mph - N/A   Clear
10:15 AM 60.8 °F - 30.2 °F 31% 30.25 in 10.0 mi ENE 5.8 mph - N/A   Clear
10:35 AM 60.8 °F - 30.2 °F 31% 30.25 in 10.0 mi Calm Calm - N/A   Clear
10:55 AM 60.8 °F - 30.2 °F 31% 30.25 in 10.0 mi Calm Calm - N/A   Clear
11:15 AM 60.8 °F - 30.2 °F 31% 30.25 in 10.0 mi Calm Calm - N/A   Clear
11:35 AM 62.6 °F - 30.2 °F 30% 30.25 in 10.0 mi Calm Calm - N/A   Clear
11:55 AM 64.4 °F - 30.2 °F 28% 30.25 in 10.0 mi SE 4.6 mph - N/A   Clear
12:15 PM 62.6 °F - 30.2 °F 30% 30.25 in 10.0 mi East 5.8 mph - N/A   Clear
12:35 PM 62.6 °F - 30.2 °F 30% 30.25 in 10.0 mi East 4.6 mph - N/A   Clear
1:15 PM 62.6 °F - 33.8 °F 34% 30.23 in 10.0 mi ESE 6.9 mph - N/A   Clear
1:35 PM 62.6 °F - 32.0 °F 32% 30.24 in 10.0 mi SE 8.1 mph - N/A   Clear
2:15 PM 62.6 °F - 33.8 °F 34% 30.24 in 10.0 mi SSE 11.5 mph - N/A   Partly Cloudy
2:35 PM 60.8 °F - 33.8 °F 36% 30.23 in 10.0 mi SE 9.2 mph - N/A   Clear
2:55 PM 57.2 °F - 33.8 °F 41% 30.22 in 10.0 mi SSE 9.2 mph - N/A   Clear
3:15 PM 57.2 °F - 35.6 °F 44% 30.22 in 10.0 mi SE 4.6 mph - N/A   Clear
3:35 PM 57.2 °F - 35.6 °F 44% 30.22 in 10.0 mi SSE 6.9 mph - N/A   Clear
3:55 PM 57.2 °F - 37.4 °F 48% 30.22 in 10.0 mi SSE 6.9 mph - N/A   Clear
4:15 PM 57.2 °F - 37.4 °F 48% 30.22 in 10.0 mi SSE 3.5 mph - N/A   Clear
4:35 PM 57.2 °F - 37.4 °F 48% 30.21 in 10.0 mi South 5.8 mph - N/A   Clear
4:55 PM 57.2 °F - 37.4 °F 48% 30.22 in 10.0 mi SSE 4.6 mph - N/A   Partly Cloudy
5:15 PM 55.4 °F - 37.4 °F 51% 30.22 in 10.0 mi Calm Calm - N/A   Scattered Clouds
5:35 PM 55.4 °F - 37.4 °F 51% 30.22 in 10.0 mi Calm Calm - N/A   Mostly Cloudy
5:55 PM 55.4 °F - 37.4 °F 51% 30.22 in 10.0 mi South 4.6 mph - N/A   Overcast
6:15 PM 53.6 °F - 41.0 °F 62% 30.22 in 10.0 mi South 3.5 mph - N/A   Overcast
6:35 PM 51.8 °F - 42.8 °F 71% 30.22 in 10.0 mi Calm Calm - N/A   Overcast
6:55 PM 51.8 °F - 44.6 °F 76% 30.21 in 10.0 mi Calm Calm - N/A   Overcast
7:15 PM 48.2 °F - 46.4 °F 93% 30.22 in 10.0 mi Calm Calm - N/A   Overcast
7:35 PM 39.2 °F - - N/A% 30.23 in 10.0 mi Calm Calm - N/A   Overcast
7:55 PM 39.2 °F - 39.2 °F 100% 30.22 in 10.0 mi Calm Calm - N/A   Overcast
8:15 PM 39.2 °F - - N/A% 30.22 in 10.0 mi Calm Calm - N/A   Overcast
8:35 PM 41.0 °F - 41.0 °F 100% 30.22 in 10.0 mi Calm Calm - N/A   Overcast
8:55 PM 41.0 °F - 41.0 °F 100% 30.22 in 10.0 mi Calm Calm - N/A   Overcast
9:15 PM 42.8 °F - 42.8 °F 100% 30.24 in 10.0 mi Calm Calm - N/A   Overcast
9:35 PM 42.8 °F - 42.8 °F 100% 30.23 in 10.0 mi Calm Calm - N/A   Overcast
9:55 PM 44.6 °F - 44.6 °F 100% 30.23 in 10.0 mi Calm Calm - 0.01 in   Overcast
10:15 PM 44.6 °F - 44.6 °F 100% 30.22 in 10.0 mi Calm Calm - N/A   Overcast
10:35 PM 46.4 °F - 46.4 °F 100% 30.22 in 10.0 mi Calm Calm - N/A   Overcast
10:55 PM 50.0 °F - 46.4 °F 87% 30.21 in 10.0 mi Calm Calm - N/A   Overcast
11:15 PM 50.0 °F - 48.2 °F 94% 30.21 in 10.0 mi Calm Calm - N/A   Overcast
11:35 PM 51.8 °F - 48.2 °F 88% 30.20 in 10.0 mi Calm Calm - N/A   Overcast
11:55 PM 51.8 °F - 48.2 °F 88% 30.20 in 10.0 mi Calm Calm - N/A   Overcast